Time,TemperatureF,DewpointF,PressureIn,WindDirection,WindDirectionDegrees,WindSpeedMPH,WindSpeedGustMPH,Humidity,HourlyPrecipIn,Conditions,Clouds,dailyrainin,SolarRadiationWatts/m^2,SoftwareType,DateUTC
2013-03-20 00:00:00,66.5,30.6,29.95,West,270,7.0,15.0,26,0.00,,---,0.00,0.00,VWS V14.01,2013-03-20 07:00:00,
2013-03-20 00:04:00,66.8,31.0,29.95,West,278,6.0,18.0,26,0.00,,,0.00,0,weatherlink.com 1.10,2013-03-20 07:04:00,
2013-03-20 00:15:00,66.7,31.7,29.94,WSW,248,6.0,18.0,27,0.00,,---,0.00,0.00,VWS V14.01,2013-03-20 07:15:00,
2013-03-20 00:19:00,66.4,31.0,29.95,WSW,257,2.0,10.0,27,0.00,,,0.00,0,weatherlink.com 1.10,2013-03-20 07:19:00,
2013-03-20 00:30:00,66.6,31.6,29.93,WSW,248,10.0,25.0,27,0.00,,---,0.00,0.00,VWS V14.01,2013-03-20 07:30:00,
2013-03-20 00:34:00,66.8,32.0,29.93,West,262,5.0,23.0,27,0.00,,,0.00,0,weatherlink.com 1.10,2013-03-20 07:34:00,
2013-03-20 00:45:00,66.7,31.7,29.92,WSW,248,7.0,16.0,27,0.00,,---,0.00,0.00,VWS V14.01,2013-03-20 07:45:00,
2013-03-20 00:49:00,66.6,31.0,29.93,NNW,330,4.0,8.0,27,0.00,,,0.00,0,weatherlink.com 1.10,2013-03-20 07:49:00,
2013-03-20 01:00:00,66.6,28.7,29.94,West,270,6.0,15.0,24,0.00,,---,0.00,0.00,VWS V14.01,2013-03-20 08:00:00,
2013-03-20 01:04:00,66.6,31.0,29.93,West,266,12.0,20.0,27,0.00,,,0.00,0,weatherlink.com 1.10,2013-03-20 08:04:00,
2013-03-20 01:15:00,66.6,31.6,29.92,West,270,13.0,25.0,27,0.00,,---,0.00,0.00,VWS V14.01,2013-03-20 08:15:00,
2013-03-20 01:19:00,66.1,32.0,29.91,West,279,20.0,25.0,28,0.00,,,0.00,0,weatherlink.com 1.10,2013-03-20 08:19:00,
2013-03-20 01:30:00,66.4,31.4,29.93,West,270,15.0,25.0,27,0.00,,---,0.00,0.00,VWS V14.01,2013-03-20 08:30:00,
2013-03-20 01:34:00,66.3,32.0,29.93,West,271,19.0,23.0,28,0.00,,,0.00,0,weatherlink.com 1.10,2013-03-20 08:34:00,
2013-03-20 01:45:00,66.2,32.2,29.94,West,270,13.0,22.0,28,0.00,,---,0.00,0.00,VWS V14.01,2013-03-20 08:45:00,
2013-03-20 01:49:00,66.0,32.0,29.94,West,268,15.0,22.0,28,0.00,,,0.00,0,weatherlink.com 1.10,2013-03-20 08:49:00,
2013-03-20 02:00:00,65.9,32.8,29.94,West,270,9.0,22.0,29,0.00,,---,0.00,0.00,VWS V14.01,2013-03-20 09:00:00,
2013-03-20 02:04:00,65.8,33.0,29.94,WNW,295,6.0,14.0,30,0.00,,,0.00,0,weatherlink.com 1.10,2013-03-20 09:04:00,
2013-03-20 02:15:00,65.6,34.2,29.94,West,270,9.0,20.0,31,0.00,,---,0.00,0.00,VWS V14.01,2013-03-20 09:15:00,
2013-03-20 02:19:00,65.3,34.0,29.94,WSW,255,10.0,20.0,31,0.00,,,0.00,0,weatherlink.com 1.10,2013-03-20 09:19:00,
2013-03-20 02:30:00,65.3,33.9,29.93,WSW,248,11.0,19.0,31,0.00,,---,0.00,0.00,VWS V14.01,2013-03-20 09:30:00,
2013-03-20 02:35:00,65.0,34.0,29.93,WSW,255,11.0,19.0,32,0.00,,,0.00,0,weatherlink.com 1.10,2013-03-20 09:35:00,
2013-03-20 02:45:00,64.8,35.0,29.92,WSW,248,12.0,20.0,33,0.00,,---,0.00,0.00,VWS V14.01,2013-03-20 09:45:00,
2013-03-20 02:50:00,64.5,35.0,29.92,West,270,13.0,24.0,33,0.00,,,0.00,0,weatherlink.com 1.10,2013-03-20 09:50:00,
2013-03-20 03:00:00,64.5,34.8,29.91,WSW,248,14.0,24.0,33,0.00,,---,0.00,0.00,VWS V14.01,2013-03-20 10:00:00,
2013-03-20 03:05:00,64.7,36.0,29.90,West,272,14.0,30.0,34,0.00,,,0.00,0,weatherlink.com 1.10,2013-03-20 10:05:00,
2013-03-20 03:15:00,64.9,35.1,29.89,West,270,16.0,30.0,33,0.00,,---,0.00,0.00,VWS V14.01,2013-03-20 10:15:00,
2013-03-20 03:20:00,64.8,35.0,29.89,WSW,249,15.0,28.0,33,0.00,,,0.00,0,weatherlink.com 1.10,2013-03-20 10:20:00,
2013-03-20 03:30:00,64.8,35.8,29.88,WSW,248,16.0,28.0,34,0.00,,---,0.00,0.00,VWS V14.01,2013-03-20 10:30:00,
2013-03-20 03:35:00,64.5,35.0,29.89,West,278,13.0,27.0,34,0.00,,,0.00,0,weatherlink.com 1.10,2013-03-20 10:35:00,
2013-03-20 03:45:00,64.4,36.2,29.89,WSW,248,16.0,27.0,35,0.00,,---,0.00,0.00,VWS V14.01,2013-03-20 10:45:00,
2013-03-20 03:50:00,64.3,36.0,29.89,WSW,247,18.0,29.0,35,0.00,,,0.00,0,weatherlink.com 1.10,2013-03-20 10:50:00,
2013-03-20 04:00:00,64.3,35.4,29.88,WSW,248,16.0,29.0,34,0.00,,---,0.00,0.00,VWS V14.01,2013-03-20 11:00:00,
2013-03-20 04:05:00,64.7,36.0,29.88,WNW,284,6.0,27.0,34,0.00,,,0.00,0,weatherlink.com 1.10,2013-03-20 11:05:00,
2013-03-20 04:15:00,64.7,35.7,29.88,WSW,248,17.0,28.0,34,0.00,,---,0.00,0.00,VWS V14.01,2013-03-20 11:15:00,
2013-03-20 04:20:00,64.7,36.0,29.88,WSW,243,21.0,28.0,34,0.00,,,0.00,0,weatherlink.com 1.10,2013-03-20 11:20:00,
2013-03-20 04:30:00,64.7,35.0,29.88,WSW,248,16.0,25.0,33,0.00,,---,0.00,0.00,VWS V14.01,2013-03-20 11:30:00,
2013-03-20 04:35:00,64.8,35.0,29.88,WSW,247,25.0,28.0,33,0.00,,,0.00,0,weatherlink.com 1.10,2013-03-20 11:35:00,
2013-03-20 04:45:00,64.8,35.0,29.88,WSW,248,17.0,29.0,33,0.00,,---,0.00,0.00,VWS V14.01,2013-03-20 11:45:00,
2013-03-20 04:50:00,64.8,34.0,29.87,WSW,248,21.0,26.0,32,0.00,,,0.00,0,weatherlink.com 1.10,2013-03-20 11:50:00,
2013-03-20 05:00:00,64.8,34.3,29.87,WSW,248,17.0,26.0,32,0.00,,---,0.00,0.00,VWS V14.01,2013-03-20 12:00:00,
2013-03-20 05:05:00,64.8,34.0,29.87,WSW,243,14.0,24.0,32,0.00,,,0.00,0,weatherlink.com 1.10,2013-03-20 12:05:00,
2013-03-20 05:15:00,64.8,35.0,29.87,WSW,248,15.0,27.0,33,0.00,,---,0.00,0.00,VWS V14.01,2013-03-20 12:15:00,
2013-03-20 05:20:00,64.7,35.0,29.87,WSW,246,21.0,27.0,33,0.00,,,0.00,0,weatherlink.com 1.10,2013-03-20 12:20:00,
2013-03-20 05:30:00,64.7,35.0,29.87,WSW,248,16.0,27.0,33,0.00,,---,0.00,0.00,VWS V14.01,2013-03-20 12:30:00,
2013-03-20 05:35:00,64.7,35.0,29.87,WSW,249,16.0,26.0,33,0.00,,,0.00,0,weatherlink.com 1.10,2013-03-20 12:35:00,
2013-03-20 05:45:00,64.6,34.1,29.87,WSW,248,16.0,28.0,32,0.00,,---,0.00,0.00,VWS V14.01,2013-03-20 12:45:00,
2013-03-20 05:50:00,64.3,34.0,29.87,SW,227,16.0,24.0,32,0.00,,,0.00,0,weatherlink.com 1.10,2013-03-20 12:50:00,
2013-03-20 06:00:00,64.4,33.1,29.87,WSW,248,15.0,25.0,31,0.00,,---,0.00,0.00,VWS V14.01,2013-03-20 13:00:00,
2013-03-20 06:05:00,64.3,34.0,29.87,WSW,237,20.0,25.0,32,0.00,,,0.00,0,weatherlink.com 1.10,2013-03-20 13:05:00,
2013-03-20 06:15:00,64.3,33.8,29.87,WSW,248,16.0,25.0,32,0.00,,---,0.00,0.00,VWS V14.01,2013-03-20 13:15:00,
2013-03-20 06:20:00,64.2,33.0,29.87,SW,232,10.0,24.0,31,0.00,,,0.00,0,weatherlink.com 1.10,2013-03-20 13:20:00,
2013-03-20 06:30:00,64.2,32.2,29.86,WSW,248,14.0,24.0,30,0.00,,---,0.00,0.00,VWS V14.01,2013-03-20 13:30:00,
2013-03-20 06:35:00,64.2,32.0,29.86,SW,232,15.0,21.0,30,0.00,,,0.00,0,weatherlink.com 1.10,2013-03-20 13:35:00,
2013-03-20 06:45:00,64.2,30.4,29.86,WSW,248,15.0,22.0,28,0.00,,---,0.00,0.00,VWS V14.01,2013-03-20 13:45:00,
2013-03-20 06:50:00,64.5,31.0,29.86,WSW,252,16.0,22.0,28,0.00,,,0.00,0,weatherlink.com 1.10,2013-03-20 13:50:00,
2013-03-20 07:00:00,64.4,30.6,29.86,WSW,248,14.0,23.0,28,0.00,,---,0.00,0.00,VWS V14.01,2013-03-20 14:00:00,
2013-03-20 07:05:00,64.7,30.0,29.86,West,264,9.0,23.0,27,0.00,,,0.00,11,weatherlink.com 1.10,2013-03-20 14:05:00,
2013-03-20 07:15:00,64.7,30.0,29.86,WSW,248,15.0,26.0,27,0.00,,---,0.00,14.00,VWS V14.01,2013-03-20 14:15:00,
2013-03-20 07:20:00,64.7,30.0,29.86,WNW,282,22.0,24.0,27,0.00,,,0.00,30,weatherlink.com 1.10,2013-03-20 14:20:00,
2013-03-20 07:30:00,64.7,30.9,29.86,WSW,248,15.0,25.0,28,0.00,,---,0.00,34.00,VWS V14.01,2013-03-20 14:30:00,
2013-03-20 07:35:00,64.8,29.0,29.86,West,259,16.0,25.0,26,0.00,,,0.00,56,weatherlink.com 1.10,2013-03-20 14:35:00,
2013-03-20 07:45:00,64.9,29.2,29.85,WSW,248,16.0,26.0,26,0.00,,---,0.00,61.00,VWS V14.01,2013-03-20 14:45:00,
2013-03-20 07:50:00,65.2,28.0,29.86,WSW,255,13.0,26.0,25,0.00,,,0.00,79,weatherlink.com 1.10,2013-03-20 14:50:00,
2013-03-20 08:00:00,65.3,28.6,29.86,WSW,248,17.0,26.0,25,0.00,,---,0.00,82.00,VWS V14.01,2013-03-20 15:00:00,
2013-03-20 08:05:00,65.5,28.0,29.86,WSW,251,10.0,26.0,24,0.00,,,0.00,107,weatherlink.com 1.10,2013-03-20 15:05:00,
2013-03-20 08:15:00,65.6,26.8,29.87,WSW,248,14.0,24.0,23,0.00,,---,0.00,107.00,VWS V14.01,2013-03-20 15:15:00,
2013-03-20 08:20:00,66.0,27.0,29.87,WSW,240,10.0,22.0,23,0.00,,,0.00,120,weatherlink.com 1.10,2013-03-20 15:20:00,
2013-03-20 08:30:00,66.0,25.0,29.88,WSW,248,13.0,22.0,21,0.00,,---,0.00,121.00,VWS V14.01,2013-03-20 15:30:00,
2013-03-20 08:35:00,66.4,25.0,29.88,WSW,243,19.0,22.0,21,0.00,,,0.00,128,weatherlink.com 1.10,2013-03-20 15:35:00,
2013-03-20 08:45:00,66.5,24.2,29.88,SW,225,11.0,21.0,20,0.00,,---,0.00,134.00,VWS V14.01,2013-03-20 15:45:00,
2013-03-20 08:51:00,66.9,24.0,29.89,WSW,249,7.0,17.0,20,0.00,,,0.00,153,weatherlink.com 1.10,2013-03-20 15:51:00,
2013-03-20 09:00:00,66.9,23.3,29.89,SW,225,10.0,18.0,19,0.00,,---,0.00,157.00,VWS V14.01,2013-03-20 16:00:00,
2013-03-20 09:15:00,67.4,22.5,29.89,SW,225,10.0,18.0,18,0.00,,---,0.00,195.00,VWS V14.01,2013-03-20 16:15:00,
2013-03-20 09:21:00,67.8,24.0,29.89,West,266,15.0,22.0,19,0.00,,,0.00,206,weatherlink.com 1.10,2013-03-20 16:21:00,
2013-03-20 09:30:00,67.8,24.1,29.88,WSW,248,13.0,23.0,19,0.00,,---,0.00,207.00,VWS V14.01,2013-03-20 16:30:00,
2013-03-20 09:45:00,67.9,24.1,29.88,WSW,248,15.0,23.0,19,0.00,,---,0.00,229.00,VWS V14.01,2013-03-20 16:45:00,
2013-03-20 10:00:00,68.3,23.2,29.86,WSW,248,17.0,30.0,18,0.00,,---,0.00,319.00,VWS V14.01,2013-03-20 17:00:00,
2013-03-20 10:15:00,69.2,21.1,29.87,WSW,248,18.0,35.0,16,0.00,,---,0.00,339.00,VWS V14.01,2013-03-20 17:15:00,
2013-03-20 10:21:00,69.8,21.0,29.87,WSW,242,13.0,27.0,16,0.00,,,0.00,297,weatherlink.com 1.10,2013-03-20 17:21:00,
2013-03-20 10:30:00,69.9,20.2,29.87,WSW,248,16.0,30.0,15,0.00,,---,0.00,304.00,VWS V14.01,2013-03-20 17:30:00,
2013-03-20 10:45:00,70.4,22.1,29.88,West,270,15.0,27.0,16,0.00,,---,0.00,287.00,VWS V14.01,2013-03-20 17:45:00,
2013-03-20 10:51:00,70.6,22.0,29.87,SW,226,13.0,26.0,16,0.00,,,0.00,285,weatherlink.com 1.10,2013-03-20 17:51:00,
2013-03-20 11:00:00,70.5,22.2,29.87,WSW,248,15.0,25.0,16,0.00,,---,0.00,279.00,VWS V14.01,2013-03-20 18:00:00,
2013-03-20 11:06:00,70.4,22.0,29.87,West,259,20.0,26.0,16,0.00,,,0.00,294,weatherlink.com 1.10,2013-03-20 18:06:00,
2013-03-20 11:15:00,70.4,22.1,29.87,WSW,248,16.0,26.0,16,0.00,,---,0.00,311.00,VWS V14.01,2013-03-20 18:15:00,
2013-03-20 11:21:00,70.8,24.0,29.87,West,265,21.0,26.0,17,0.00,,,0.00,399,weatherlink.com 1.10,2013-03-20 18:21:00,
2013-03-20 11:30:00,70.8,22.4,29.87,WSW,248,15.0,26.0,16,0.00,,---,0.00,439.00,VWS V14.01,2013-03-20 18:30:00,
2013-03-20 11:36:00,71.8,22.0,29.87,WSW,242,16.0,25.0,15,0.00,,,0.00,466,weatherlink.com 1.10,2013-03-20 18:36:00,
2013-03-20 11:45:00,71.8,23.2,29.86,WSW,248,14.0,25.0,16,0.00,,---,0.00,417.00,VWS V14.01,2013-03-20 18:45:00,
2013-03-20 11:51:00,72.0,23.0,29.87,SW,225,12.0,25.0,16,0.00,,,0.00,408,weatherlink.com 1.10,2013-03-20 18:51:00,
2013-03-20 12:00:00,72.0,23.4,29.86,WSW,248,15.0,25.0,16,0.00,,---,0.00,406.00,VWS V14.01,2013-03-20 19:00:00,
2013-03-20 12:06:00,71.8,23.0,29.86,West,272,14.0,24.0,16,0.00,,,0.00,415,weatherlink.com 1.10,2013-03-20 19:06:00,
2013-03-20 12:15:00,71.9,23.3,29.86,West,270,14.0,24.0,16,0.00,,---,0.00,400.00,VWS V14.01,2013-03-20 19:15:00,
2013-03-20 12:30:00,72.4,23.7,29.85,WSW,248,14.0,23.0,16,0.00,,---,0.00,397.00,VWS V14.01,2013-03-20 19:30:00,
2013-03-20 12:36:00,73.0,24.0,29.84,WSW,247,19.0,25.0,16,0.00,,,0.00,436,weatherlink.com 1.10,2013-03-20 19:36:00,
2013-03-20 12:45:00,73.0,24.2,29.84,WSW,248,15.0,25.0,16,0.00,,---,0.00,518.00,VWS V14.01,2013-03-20 19:45:00,
2013-03-20 12:51:00,74.0,25.0,29.84,West,264,10.0,24.0,16,0.00,,,0.00,640,weatherlink.com 1.10,2013-03-20 19:51:00,
2013-03-20 13:00:00,74.1,23.5,29.84,WSW,248,16.0,25.0,15,0.00,,---,0.00,677.00,VWS V14.01,2013-03-20 20:00:00,
2013-03-20 13:06:00,75.3,24.0,29.84,SW,234,13.0,24.0,15,0.00,,,0.00,756,weatherlink.com 1.10,2013-03-20 20:06:00,
2013-03-20 13:15:00,75.3,24.5,29.83,West,270,15.0,26.0,15,0.00,,---,0.00,768.00,VWS V14.01,2013-03-20 20:15:00,
2013-03-20 13:22:00,76.0,25.0,29.83,WSW,254,14.0,28.0,15,0.00,,,0.00,642,weatherlink.com 1.10,2013-03-20 20:22:00,
2013-03-20 13:30:00,76.0,25.1,29.83,WSW,248,16.0,28.0,15,0.00,,---,0.00,652.00,VWS V14.01,2013-03-20 20:30:00,
2013-03-20 13:36:00,75.4,26.0,29.83,WSW,244,8.0,26.0,16,0.00,,,0.00,429,weatherlink.com 1.10,2013-03-20 20:36:00,
2013-03-20 13:45:00,75.5,26.2,29.83,WSW,248,15.0,26.0,16,0.00,,---,0.00,412.00,VWS V14.01,2013-03-20 20:45:00,
2013-03-20 13:51:00,74.7,26.0,29.83,WNW,284,13.0,32.0,16,0.00,,,0.00,367,weatherlink.com 1.10,2013-03-20 20:51:00,
2013-03-20 14:00:00,74.5,26.9,29.83,WSW,248,17.0,32.0,17,0.00,,---,0.00,393.00,VWS V14.01,2013-03-20 21:00:00,
2013-03-20 14:06:00,73.9,28.0,29.82,WSW,253,27.0,34.0,18,0.00,,,0.00,533,weatherlink.com 1.10,2013-03-20 21:06:00,
2013-03-20 14:15:00,73.9,27.8,29.81,WSW,248,20.0,35.0,18,0.00,,---,0.00,501.00,VWS V14.01,2013-03-20 21:15:00,
2013-03-20 14:21:00,73.9,28.0,29.81,WSW,257,25.0,35.0,18,0.00,,,0.00,705,weatherlink.com 1.10,2013-03-20 21:21:00,
2013-03-20 14:30:00,73.9,27.8,29.80,WSW,248,19.0,36.0,18,0.00,,---,0.00,560.00,VWS V14.01,2013-03-20 21:30:00,
2013-03-20 14:36:00,74.4,28.0,29.80,West,275,19.0,35.0,18,0.00,,,0.00,638,weatherlink.com 1.10,2013-03-20 21:36:00,
2013-03-20 14:45:00,74.4,28.2,29.80,WSW,248,20.0,35.0,18,0.00,,---,0.00,514.00,VWS V14.01,2013-03-20 21:45:00,
2013-03-20 14:51:00,74.4,29.0,29.80,West,274,27.0,34.0,19,0.00,,,0.00,399,weatherlink.com 1.10,2013-03-20 21:51:00,
2013-03-20 15:00:00,74.2,29.3,29.80,WSW,248,22.0,38.0,19,0.00,,---,0.00,427.00,VWS V14.01,2013-03-20 22:00:00,
2013-03-20 15:06:00,74.7,30.0,29.80,West,262,34.0,35.0,19,0.00,,,0.00,838,weatherlink.com 1.10,2013-03-20 22:06:00,
2013-03-20 15:15:00,74.8,29.8,29.79,WSW,248,22.0,39.0,19,0.00,,---,0.00,796.00,VWS V14.01,2013-03-20 22:15:00,
2013-03-20 15:21:00,75.1,30.0,29.80,SW,227,19.0,39.0,19,0.00,,,0.00,754,weatherlink.com 1.10,2013-03-20 22:21:00,
2013-03-20 15:30:00,75.1,30.1,29.80,West,270,23.0,38.0,19,0.00,,---,0.00,794.00,VWS V14.01,2013-03-20 22:30:00,
2013-03-20 15:36:00,74.9,30.0,29.80,WSW,245,27.0,38.0,19,0.00,,,0.00,828,weatherlink.com 1.10,2013-03-20 22:36:00,
2013-03-20 15:45:00,74.7,29.7,29.80,WSW,248,23.0,37.0,19,0.00,,---,0.00,746.00,VWS V14.01,2013-03-20 22:45:00,
2013-03-20 15:51:00,73.7,30.0,29.80,West,265,15.0,37.0,20,0.00,,,0.00,559,weatherlink.com 1.10,2013-03-20 22:51:00,
2013-03-20 16:00:00,73.9,30.3,29.80,West,270,21.0,37.0,20,0.00,,---,0.00,521.00,VWS V14.01,2013-03-20 23:00:00,
2013-03-20 16:06:00,73.5,30.0,29.81,West,261,19.0,32.0,20,0.00,,,0.00,445,weatherlink.com 1.10,2013-03-20 23:06:00,
2013-03-20 16:15:00,73.5,30.0,29.80,West,270,19.0,32.0,20,0.00,,---,0.00,427.00,VWS V14.01,2013-03-20 23:15:00,
2013-03-20 16:21:00,73.0,30.0,29.80,WSW,251,13.0,32.0,20,0.00,,,0.00,290,weatherlink.com 1.10,2013-03-20 23:21:00,
2013-03-20 16:30:00,72.9,30.7,29.80,WSW,248,20.0,33.0,21,0.00,,---,0.00,319.00,VWS V14.01,2013-03-20 23:30:00,
2013-03-20 16:36:00,71.8,30.0,29.80,SW,222,18.0,31.0,21,0.00,,,0.00,237,weatherlink.com 1.10,2013-03-20 23:36:00,
2013-03-20 16:45:00,71.9,29.9,29.79,WSW,248,19.0,35.0,21,0.00,,---,0.00,227.00,VWS V14.01,2013-03-20 23:45:00,
2013-03-20 16:52:00,71.5,31.0,29.79,West,264,26.0,33.0,22,0.00,,,0.00,204,weatherlink.com 1.10,2013-03-20 23:52:00,
2013-03-20 17:00:00,71.4,31.7,29.80,West,270,21.0,34.0,23,0.00,,---,0.00,198.00,VWS V14.01,2013-03-21 00:00:00,
2013-03-20 17:06:00,70.8,31.0,29.79,WNW,282,14.0,26.0,23,0.00,,,0.00,132,weatherlink.com 1.10,2013-03-21 00:06:00,
2013-03-20 17:15:00,70.8,31.2,29.79,West,270,16.0,26.0,23,0.00,,---,0.00,130.00,VWS V14.01,2013-03-21 00:15:00,
2013-03-20 17:22:00,70.6,31.0,29.78,West,268,20.0,29.0,23,0.00,,,0.00,139,weatherlink.com 1.10,2013-03-21 00:22:00,
2013-03-20 17:30:00,70.6,31.0,29.77,WSW,248,17.0,29.0,23,0.00,,---,0.00,136.00,VWS V14.01,2013-03-21 00:30:00,
2013-03-20 17:37:00,70.9,30.0,29.76,West,272,19.0,27.0,22,0.00,,,0.00,105,weatherlink.com 1.10,2013-03-21 00:37:00,
2013-03-20 17:45:00,71.9,29.9,29.79,WSW,248,19.0,35.0,21,0.00,,---,0.00,227.00,VWS V14.01,2013-03-21 00:45:00,
2013-03-20 17:52:00,70.9,31.0,29.79,WSW,239,13.0,26.0,23,0.00,,,0.00,130,weatherlink.com 1.10,2013-03-21 00:52:00,
2013-03-20 18:00:00,71.0,30.3,29.80,WSW,248,11.0,26.0,22,0.00,,---,0.00,122.00,VWS V14.01,2013-03-21 01:00:00,
2013-03-20 18:07:00,70.4,32.0,29.80,WSW,253,13.0,22.0,24,0.00,,,0.00,54,weatherlink.com 1.10,2013-03-21 01:07:00,
2013-03-20 18:15:00,70.0,33.6,29.80,WSW,248,16.0,32.0,26,0.00,,---,0.00,50.00,VWS V14.01,2013-03-21 01:15:00,
2013-03-20 18:22:00,68.3,32.0,29.79,West,261,12.0,30.0,26,0.00,,,0.00,28,weatherlink.com 1.10,2013-03-21 01:22:00,
2013-03-20 18:30:00,70.6,31.0,29.77,WSW,248,17.0,29.0,23,0.00,,---,0.00,136.00,VWS V14.01,2013-03-21 01:30:00,
2013-03-20 18:37:00,67.4,32.0,29.79,WSW,255,15.0,29.0,27,0.00,,,0.00,18,weatherlink.com 1.10,2013-03-21 01:37:00,
2013-03-20 18:45:00,67.1,32.9,29.80,WSW,241,17.0,17.0,28,0.00,,---,0.00,9.00,VWS V14.01,2013-03-21 01:45:00,
2013-03-20 18:46:00,67.1,32.9,29.80,SW,234,19.0,19.0,28,0.00,,---,0.00,9.00,VWS V14.01,2013-03-21 01:46:00,
2013-03-20 18:51:00,66.9,32.8,29.80,WSW,238,20.0,28.0,28,0.00,,---,0.00,5.00,VWS V14.01,2013-03-21 01:51:00,
2013-03-20 18:56:00,66.8,31.8,29.80,SW,232,22.0,28.0,27,0.00,,---,0.00,0.00,VWS V14.01,2013-03-21 01:56:00,
2013-03-20 19:00:00,71.0,30.3,29.80,WSW,248,11.0,26.0,22,0.00,,---,0.00,122.00,VWS V14.01,2013-03-21 02:00:00,
2013-03-20 19:02:00,66.6,32.5,29.81,WSW,238,23.0,26.0,28,0.00,,---,0.00,0.00,VWS V14.01,2013-03-21 02:02:00,
2013-03-20 19:07:00,66.4,32.3,29.80,WSW,240,18.0,26.0,28,0.00,,---,0.00,0.00,VWS V14.01,2013-03-21 02:07:00,
2013-03-20 19:12:00,66.4,32.3,29.81,WSW,238,15.0,26.0,28,0.00,,---,0.00,0.00,VWS V14.01,2013-03-21 02:12:00,
2013-03-20 19:15:00,70.0,33.6,29.80,WSW,248,16.0,32.0,26,0.00,,---,0.00,50.00,VWS V14.01,2013-03-21 02:15:00,
2013-03-20 19:17:00,66.4,32.3,29.81,SW,236,8.0,19.0,28,0.00,,---,0.00,0.00,VWS V14.01,2013-03-21 02:17:00,
2013-03-20 19:22:00,66.4,32.3,29.81,SW,230,12.0,23.0,28,0.00,,---,0.00,0.00,VWS V14.01,2013-03-21 02:22:00,
2013-03-20 19:27:00,66.4,32.3,29.81,West,264,22.0,26.0,28,0.00,,---,0.00,0.00,VWS V14.01,2013-03-21 02:27:00,
2013-03-20 19:32:00,66.4,32.3,29.80,WSW,250,21.0,22.0,28,0.00,,---,0.00,0.00,VWS V14.01,2013-03-21 02:32:00,
2013-03-20 19:37:00,66.4,32.3,29.80,West,260,21.0,24.0,28,0.00,,---,0.00,0.00,VWS V14.01,2013-03-21 02:37:00,
2013-03-20 19:42:00,66.3,31.4,29.80,WSW,258,18.0,27.0,27,0.00,,---,0.00,0.00,VWS V14.01,2013-03-21 02:42:00,
2013-03-20 19:45:00,67.1,32.9,29.80,WSW,241,17.0,17.0,28,0.00,,---,0.00,9.00,VWS V14.01,2013-03-21 02:45:00,
2013-03-20 19:47:00,66.3,32.2,29.81,WSW,252,11.0,18.0,28,0.00,,---,0.00,0.00,VWS V14.01,2013-03-21 02:47:00,
2013-03-20 19:52:00,66.4,31.4,29.82,West,280,7.0,18.0,27,0.00,,---,0.00,0.00,VWS V14.01,2013-03-21 02:52:00,
2013-03-20 19:57:00,66.4,31.4,29.81,WSW,255,17.0,20.0,27,0.00,,---,0.00,0.00,VWS V14.01,2013-03-21 02:57:00,
2013-03-20 20:00:00,66.6,32.5,29.81,SW,220,15.0,28.0,28,0.00,,---,0.00,0.00,VWS V14.01,2013-03-21 03:00:00,
2013-03-20 20:02:00,66.4,32.3,29.81,WSW,251,9.0,18.0,28,0.00,,---,0.00,0.00,VWS V14.01,2013-03-21 03:02:00,
2013-03-20 20:07:00,66.6,32.5,29.81,WSW,251,16.0,18.0,28,0.00,,---,0.00,0.00,VWS V14.01,2013-03-21 03:07:00,
2013-03-20 20:12:00,66.3,33.1,29.82,WSW,245,11.0,20.0,29,0.00,,---,0.00,0.00,VWS V14.01,2013-03-21 03:12:00,
2013-03-20 20:15:00,66.4,32.3,29.80,WSW,243,15.0,26.0,28,0.00,,---,0.00,0.00,VWS V14.01,2013-03-21 03:15:00,
2013-03-20 20:17:00,66.0,32.9,29.81,SW,232,16.0,16.0,29,0.00,,---,0.00,0.00,VWS V14.01,2013-03-21 03:17:00,
2013-03-20 20:22:00,66.0,32.9,29.80,SW,216,13.0,17.0,29,0.00,,---,0.00,0.00,VWS V14.01,2013-03-21 03:22:00,
2013-03-20 20:27:00,66.0,32.0,29.80,South,183,8.0,17.0,28,0.00,,---,0.00,0.00,VWS V14.01,2013-03-21 03:27:00,
2013-03-20 20:30:00,66.4,32.3,29.80,WSW,238,11.0,26.0,28,0.00,,---,0.00,0.00,VWS V14.01,2013-03-21 03:30:00,
2013-03-20 20:32:00,65.8,31.8,29.80,SW,232,12.0,12.0,28,0.00,,---,0.00,0.00,VWS V14.01,2013-03-21 03:32:00,
2013-03-20 20:37:00,65.8,31.8,29.80,SW,228,21.0,21.0,28,0.00,,---,0.00,0.00,VWS V14.01,2013-03-21 03:37:00,
2013-03-20 20:43:00,65.6,31.6,29.79,SW,230,10.0,21.0,28,0.00,,---,0.00,0.00,VWS V14.01,2013-03-21 03:43:00,
2013-03-20 20:48:00,65.6,31.6,29.78,WSW,238,9.0,18.0,28,0.00,,---,0.00,0.00,VWS V14.01,2013-03-21 03:48:00,
2013-03-20 20:53:00,66.0,32.0,29.78,WNW,286,15.0,23.0,28,0.00,,---,0.00,0.00,VWS V14.01,2013-03-21 03:53:00,
2013-03-20 20:58:00,66.0,32.0,29.77,WSW,247,20.0,25.0,28,0.00,,---,0.00,0.00,VWS V14.01,2013-03-21 03:58:00,
2013-03-20 21:00:00,66.0,31.1,29.78,West,261,20.0,25.0,27,0.00,,---,0.00,0.00,VWS V14.01,2013-03-21 04:00:00,
2013-03-20 21:05:00,66.1,30.2,29.78,West,259,23.0,25.0,26,0.00,,---,0.00,0.00,VWS V14.01,2013-03-21 04:05:00,
2013-03-20 21:10:00,66.4,30.5,29.78,West,259,26.0,26.0,26,0.00,,---,0.00,0.00,VWS V14.01,2013-03-21 04:10:00,
2013-03-20 21:15:00,66.4,31.4,29.77,WNW,287,19.0,26.0,27,0.00,,---,0.00,0.00,VWS V14.01,2013-03-21 04:15:00,
2013-03-20 21:20:00,66.0,31.1,29.77,WNW,297,12.0,29.0,27,0.00,,---,0.00,0.00,VWS V14.01,2013-03-21 04:20:00,
2013-03-20 21:26:00,65.8,29.0,29.77,West,265,16.0,32.0,25,0.00,,---,0.00,0.00,VWS V14.01,2013-03-21 04:26:00,
2013-03-20 21:30:00,65.8,31.8,29.80,SSW,212,8.0,17.0,28,0.00,,---,0.00,0.00,VWS V14.01,2013-03-21 04:30:00,
2013-03-20 21:31:00,65.5,30.7,29.77,WSW,250,25.0,32.0,27,0.00,,---,0.00,0.00,VWS V14.01,2013-03-21 04:31:00,
2013-03-20 21:36:00,65.2,30.4,29.77,West,271,16.0,34.0,27,0.00,,---,0.00,0.00,VWS V14.01,2013-03-21 04:36:00,
2013-03-20 21:41:00,65.2,29.5,29.77,WSW,241,17.0,34.0,26,0.00,,---,0.00,0.00,VWS V14.01,2013-03-21 04:41:00,
2013-03-20 21:45:00,65.6,31.6,29.78,WSW,243,9.0,21.0,28,0.00,,---,0.00,0.00,VWS V14.01,2013-03-21 04:45:00,
2013-03-20 21:46:00,65.2,29.5,29.77,WNW,290,24.0,34.0,26,0.00,,---,0.00,0.00,VWS V14.01,2013-03-21 04:46:00,
2013-03-20 21:51:00,65.0,29.3,29.78,West,261,20.0,28.0,26,0.00,,---,0.00,0.00,VWS V14.01,2013-03-21 04:51:00,
2013-03-20 21:56:00,64.8,29.1,29.79,West,274,20.0,30.0,26,0.00,,---,0.00,0.00,VWS V14.01,2013-03-21 04:56:00,
2013-03-20 22:00:00,66.0,31.1,29.78,WNW,287,15.0,25.0,27,0.00,,---,0.00,0.00,VWS V14.01,2013-03-21 05:00:00,
2013-03-20 22:08:00,64.7,29.0,29.80,West,264,10.0,33.0,26,0.00,,,0.00,0,weatherlink.com 1.10,2013-03-21 05:08:00,
2013-03-20 22:15:00,66.3,31.4,29.77,West,261,23.0,26.0,27,0.00,,---,0.00,0.00,VWS V14.01,2013-03-21 05:15:00,
2013-03-20 22:23:00,63.7,30.0,29.79,West,263,17.0,27.0,28,0.00,,,0.00,0,weatherlink.com 1.10,2013-03-21 05:23:00,
2013-03-20 22:30:00,65.5,30.7,29.77,WSW,257,33.0,33.0,27,0.00,,---,0.00,0.00,VWS V14.01,2013-03-21 05:30:00,
2013-03-20 22:38:00,62.7,30.0,29.81,West,266,14.0,24.0,29,0.00,,,0.00,0,weatherlink.com 1.10,2013-03-21 05:38:00,
2013-03-20 22:45:00,65.2,29.5,29.77,WNW,290,24.0,34.0,26,0.00,,---,0.00,0.00,VWS V14.01,2013-03-21 05:45:00,
2013-03-20 22:53:00,61.8,31.0,29.80,WSW,251,17.0,24.0,31,0.00,,,0.00,0,weatherlink.com 1.10,2013-03-21 05:53:00,
2013-03-20 23:00:00,64.9,29.2,29.79,West,270,19.0,32.0,26,0.00,,---,0.00,0.00,VWS V14.01,2013-03-21 06:00:00,
2013-03-20 23:08:00,61.5,30.0,29.80,West,272,22.0,26.0,31,0.00,,,0.00,0,weatherlink.com 1.10,2013-03-21 06:08:00,
2013-03-20 23:15:00,64.7,29.0,29.80,West,270,17.0,33.0,26,0.00,,---,0.00,0.00,VWS V14.01,2013-03-21 06:15:00,
2013-03-20 23:23:00,61.3,31.0,29.78,West,271,18.0,34.0,32,0.00,,,0.00,0,weatherlink.com 1.10,2013-03-21 06:23:00,
2013-03-20 23:30:00,63.8,30.1,29.80,West,270,17.0,28.0,28,0.00,,---,0.00,0.00,VWS V14.01,2013-03-21 06:30:00,
2013-03-20 23:38:00,61.6,31.0,29.79,West,264,13.0,29.0,31,0.00,,,0.00,0,weatherlink.com 1.10,2013-03-21 06:38:00,
2013-03-20 23:45:00,62.7,30.8,29.80,West,270,16.0,26.0,30,0.00,,---,0.00,0.00,VWS V14.01,2013-03-21 06:45:00,
2013-03-20 23:54:00,61.3,29.0,29.80,West,279,16.0,23.0,30,0.00,,,0.00,0,weatherlink.com 1.10,2013-03-21 06:54:00,